Location: Ahausen
(50.4985°N, 8.2722°E)
Time: 01:30:01
(UTC+00:00)

Lacrosse 4 Rocket - Pass Details

Date: 18 September 2020
Orbit: 543 x 615 km, 68.0° (Epoch: 23 October)

Event Time Altitude Azimuth Distance (km) Brightness Sun altitude
Rises 20:57:58 0° 327° (NNW) 2,717 6.0 -29.8°
Reaches altitude 10° 21:00:13 10° 332° (NNW) 1,823 4.8 -30.1°
Enters shadow 21:02:08 26° 344° (NNW) 1,113 3.4 -30.3°
